STARLINK-32049

Last updated on Sat Aug 03 2024 00:02:04 GMT+0000 (Coordinated Universal Time)

1 60199U 24124S 24215.27975129 -.00002068 00000+0 -41736-4 0 9996 2 60199 53.1600 165.9913 0001381 109.5189 250.5965 15.39608543 5924

Satellite not in orbit

STARLINK-32049